Index of /20260428/WXO-DD/model_caps/3km/12/012
Name Last modified Size Description
Parent Directory -
20260428T12Z_MSC_CAPS_AbsoluteVorticity_IsbL-0250_RLatLon0.03_PT012H.grib2 2026-04-28 18:07 1.0M
20260428T12Z_MSC_CAPS_AbsoluteVorticity_IsbL-0500_RLatLon0.03_PT012H.grib2 2026-04-28 18:07 1.1M
20260428T12Z_MSC_CAPS_AbsoluteVorticity_IsbL-0700_RLatLon0.03_PT012H.grib2 2026-04-28 18:07 1.0M
20260428T12Z_MSC_CAPS_AbsoluteVorticity_IsbL-0850_RLatLon0.03_PT012H.grib2 2026-04-28 18:07 1.2M
20260428T12Z_MSC_CAPS_AbsoluteVorticity_IsbL-1000_RLatLon0.03_PT012H.grib2 2026-04-28 18:07 1.3M
20260428T12Z_MSC_CAPS_AirDensity_AGL-120m_RLatLon0.03_PT012H.grib2 2026-04-28 18:07 1.4M
20260428T12Z_MSC_CAPS_AirDensity_AGL-40m_RLatLon0.03_PT012H.grib2 2026-04-28 18:07 1.4M
20260428T12Z_MSC_CAPS_AirDensity_AGL-80m_RLatLon0.03_PT012H.grib2 2026-04-28 18:07 1.4M
20260428T12Z_MSC_CAPS_AirTemp_AGL-120m_RLatLon0.03_PT012H.grib2 2026-04-28 18:07 1.8M
20260428T12Z_MSC_CAPS_AirTemp_AGL-2m_RLatLon0.03_PT012H.grib2 2026-04-28 18:07 2.2M
20260428T12Z_MSC_CAPS_AirTemp_AGL-40m_RLatLon0.03_PT012H.grib2 2026-04-28 18:07 1.9M
20260428T12Z_MSC_CAPS_AirTemp_AGL-80m_RLatLon0.03_PT012H.grib2 2026-04-28 18:07 1.8M
20260428T12Z_MSC_CAPS_AirTemp_IsbL-0050_RLatLon0.03_PT012H.grib2 2026-04-28 18:07 694K
20260428T12Z_MSC_CAPS_AirTemp_IsbL-0100_RLatLon0.03_PT012H.grib2 2026-04-28 18:07 961K
20260428T12Z_MSC_CAPS_AirTemp_IsbL-0150_RLatLon0.03_PT012H.grib2 2026-04-28 18:07 747K
20260428T12Z_MSC_CAPS_AirTemp_IsbL-0175_RLatLon0.03_PT012H.grib2 2026-04-28 18:07 766K
20260428T12Z_MSC_CAPS_AirTemp_IsbL-0200_RLatLon0.03_PT012H.grib2 2026-04-28 18:07 783K
20260428T12Z_MSC_CAPS_AirTemp_IsbL-0225_RLatLon0.03_PT012H.grib2 2026-04-28 18:07 787K
20260428T12Z_MSC_CAPS_AirTemp_IsbL-0250_RLatLon0.03_PT012H.grib2 2026-04-28 18:07 1.0M
20260428T12Z_MSC_CAPS_AirTemp_IsbL-0275_RLatLon0.03_PT012H.grib2 2026-04-28 18:07 1.0M
20260428T12Z_MSC_CAPS_AirTemp_IsbL-0300_RLatLon0.03_PT012H.grib2 2026-04-28 18:07 1.0M
20260428T12Z_MSC_CAPS_AirTemp_IsbL-0350_RLatLon0.03_PT012H.grib2 2026-04-28 18:07 1.0M
20260428T12Z_MSC_CAPS_AirTemp_IsbL-0400_RLatLon0.03_PT012H.grib2 2026-04-28 18:07 750K
20260428T12Z_MSC_CAPS_AirTemp_IsbL-0450_RLatLon0.03_PT012H.grib2 2026-04-28 18:07 764K
20260428T12Z_MSC_CAPS_AirTemp_IsbL-0500_RLatLon0.03_PT012H.grib2 2026-04-28 18:07 778K
20260428T12Z_MSC_CAPS_AirTemp_IsbL-0550_RLatLon0.03_PT012H.grib2 2026-04-28 18:07 792K
20260428T12Z_MSC_CAPS_AirTemp_IsbL-0600_RLatLon0.03_PT012H.grib2 2026-04-28 18:07 804K
20260428T12Z_MSC_CAPS_AirTemp_IsbL-0650_RLatLon0.03_PT012H.grib2 2026-04-28 18:07 824K
20260428T12Z_MSC_CAPS_AirTemp_IsbL-0700_RLatLon0.03_PT012H.grib2 2026-04-28 18:07 1.0M
20260428T12Z_MSC_CAPS_AirTemp_IsbL-0750_RLatLon0.03_PT012H.grib2 2026-04-28 18:07 1.0M
20260428T12Z_MSC_CAPS_AirTemp_IsbL-0800_RLatLon0.03_PT012H.grib2 2026-04-28 18:07 1.0M
20260428T12Z_MSC_CAPS_AirTemp_IsbL-0850_RLatLon0.03_PT012H.grib2 2026-04-28 18:07 1.1M
20260428T12Z_MSC_CAPS_AirTemp_IsbL-0875_RLatLon0.03_PT012H.grib2 2026-04-28 18:07 1.1M
20260428T12Z_MSC_CAPS_AirTemp_IsbL-0900_RLatLon0.03_PT012H.grib2 2026-04-28 18:07 1.1M
20260428T12Z_MSC_CAPS_AirTemp_IsbL-0925_RLatLon0.03_PT012H.grib2 2026-04-28 18:07 1.1M
20260428T12Z_MSC_CAPS_AirTemp_IsbL-0950_RLatLon0.03_PT012H.grib2 2026-04-28 18:07 1.2M
20260428T12Z_MSC_CAPS_AirTemp_IsbL-0970_RLatLon0.03_PT012H.grib2 2026-04-28 18:07 1.2M
20260428T12Z_MSC_CAPS_AirTemp_IsbL-0985_RLatLon0.03_PT012H.grib2 2026-04-28 18:07 1.1M
20260428T12Z_MSC_CAPS_AirTemp_IsbL-1000_RLatLon0.03_PT012H.grib2 2026-04-28 18:07 1.0M
20260428T12Z_MSC_CAPS_AirTemp_IsbL-1015_RLatLon0.03_PT012H.grib2 2026-04-28 18:07 1.1M
20260428T12Z_MSC_CAPS_Albedo_Sfc_RLatLon0.03_PT012H.grib2 2026-04-28 18:07 2.7M
20260428T12Z_MSC_CAPS_CAPE_Sfc_RLatLon0.03_PT012H.grib2 2026-04-28 18:07 122K
20260428T12Z_MSC_CAPS_CloudWater_EAtm_RLatLon0.03_PT012H.grib2 2026-04-28 18:07 1.4M
20260428T12Z_MSC_CAPS_ConvectivePrecip-Accum_Sfc_RLatLon0.03_PT012H.grib2 2026-04-28 18:07 2.9M
20260428T12Z_MSC_CAPS_DewPointDepression_AGL-120m_RLatLon0.03_PT012H.grib2 2026-04-28 18:07 2.1M
20260428T12Z_MSC_CAPS_DewPointDepression_AGL-2m_RLatLon0.03_PT012H.grib2 2026-04-28 18:07 2.2M
20260428T12Z_MSC_CAPS_DewPointDepression_AGL-40m_RLatLon0.03_PT012H.grib2 2026-04-28 18:07 2.1M
20260428T12Z_MSC_CAPS_DewPointDepression_AGL-80m_RLatLon0.03_PT012H.grib2 2026-04-28 18:07 2.1M
20260428T12Z_MSC_CAPS_DewPointDepression_IsbL-0050_RLatLon0.03_PT012H.grib2 2026-04-28 18:07 193
20260428T12Z_MSC_CAPS_DewPointDepression_IsbL-0100_RLatLon0.03_PT012H.grib2 2026-04-28 18:07 132K
20260428T12Z_MSC_CAPS_DewPointDepression_IsbL-0150_RLatLon0.03_PT012H.grib2 2026-04-28 18:07 119K
20260428T12Z_MSC_CAPS_DewPointDepression_IsbL-0175_RLatLon0.03_PT012H.grib2 2026-04-28 18:07 186K
20260428T12Z_MSC_CAPS_DewPointDepression_IsbL-0200_RLatLon0.03_PT012H.grib2 2026-04-28 18:07 357K
20260428T12Z_MSC_CAPS_DewPointDepression_IsbL-0225_RLatLon0.03_PT012H.grib2 2026-04-28 18:07 651K
20260428T12Z_MSC_CAPS_DewPointDepression_IsbL-0250_RLatLon0.03_PT012H.grib2 2026-04-28 18:07 875K
20260428T12Z_MSC_CAPS_DewPointDepression_IsbL-0275_RLatLon0.03_PT012H.grib2 2026-04-28 18:07 1.0M
20260428T12Z_MSC_CAPS_DewPointDepression_IsbL-0300_RLatLon0.03_PT012H.grib2 2026-04-28 18:07 1.0M
20260428T12Z_MSC_CAPS_DewPointDepression_IsbL-0350_RLatLon0.03_PT012H.grib2 2026-04-28 18:07 1.1M
20260428T12Z_MSC_CAPS_DewPointDepression_IsbL-0400_RLatLon0.03_PT012H.grib2 2026-04-28 18:07 1.1M
20260428T12Z_MSC_CAPS_DewPointDepression_IsbL-0450_RLatLon0.03_PT012H.grib2 2026-04-28 18:07 1.1M
20260428T12Z_MSC_CAPS_DewPointDepression_IsbL-0500_RLatLon0.03_PT012H.grib2 2026-04-28 18:07 1.1M
20260428T12Z_MSC_CAPS_DewPointDepression_IsbL-0550_RLatLon0.03_PT012H.grib2 2026-04-28 18:07 1.2M
20260428T12Z_MSC_CAPS_DewPointDepression_IsbL-0600_RLatLon0.03_PT012H.grib2 2026-04-28 18:07 1.2M
20260428T12Z_MSC_CAPS_DewPointDepression_IsbL-0650_RLatLon0.03_PT012H.grib2 2026-04-28 18:07 1.2M
20260428T12Z_MSC_CAPS_DewPointDepression_IsbL-0700_RLatLon0.03_PT012H.grib2 2026-04-28 18:07 1.2M
20260428T12Z_MSC_CAPS_DewPointDepression_IsbL-0750_RLatLon0.03_PT012H.grib2 2026-04-28 18:07 1.3M
20260428T12Z_MSC_CAPS_DewPointDepression_IsbL-0800_RLatLon0.03_PT012H.grib2 2026-04-28 18:07 1.3M
20260428T12Z_MSC_CAPS_DewPointDepression_IsbL-0850_RLatLon0.03_PT012H.grib2 2026-04-28 18:07 1.3M
20260428T12Z_MSC_CAPS_DewPointDepression_IsbL-0875_RLatLon0.03_PT012H.grib2 2026-04-28 18:07 1.3M
20260428T12Z_MSC_CAPS_DewPointDepression_IsbL-0900_RLatLon0.03_PT012H.grib2 2026-04-28 18:07 1.4M
20260428T12Z_MSC_CAPS_DewPointDepression_IsbL-0925_RLatLon0.03_PT012H.grib2 2026-04-28 18:07 1.3M
20260428T12Z_MSC_CAPS_DewPointDepression_IsbL-0950_RLatLon0.03_PT012H.grib2 2026-04-28 18:07 1.3M
20260428T12Z_MSC_CAPS_DewPointDepression_IsbL-0970_RLatLon0.03_PT012H.grib2 2026-04-28 18:07 1.3M
20260428T12Z_MSC_CAPS_DewPointDepression_IsbL-0985_RLatLon0.03_PT012H.grib2 2026-04-28 18:07 1.3M
20260428T12Z_MSC_CAPS_DewPointDepression_IsbL-1000_RLatLon0.03_PT012H.grib2 2026-04-28 18:07 1.3M
20260428T12Z_MSC_CAPS_DewPointDepression_IsbL-1015_RLatLon0.03_PT012H.grib2 2026-04-28 18:07 1.3M
20260428T12Z_MSC_CAPS_DewPoint_AGL-120m_RLatLon0.03_PT012H.grib2 2026-04-28 18:07 3.7M
20260428T12Z_MSC_CAPS_DewPoint_AGL-2m_RLatLon0.03_PT012H.grib2 2026-04-28 18:07 2.2M
20260428T12Z_MSC_CAPS_DewPoint_AGL-40m_RLatLon0.03_PT012H.grib2 2026-04-28 18:07 3.7M
20260428T12Z_MSC_CAPS_DewPoint_AGL-80m_RLatLon0.03_PT012H.grib2 2026-04-28 18:07 3.7M
20260428T12Z_MSC_CAPS_DownwardLongwaveRadiationFlux-Accum_Sfc_RLatLon0.03_PT012H.grib2 2026-04-28 18:07 2.4M
20260428T12Z_MSC_CAPS_DownwardShortwaveRadiationFlux-Accum_NTAtm_RLatLon0.03_PT012H.grib2 2026-04-28 18:07 437K
20260428T12Z_MSC_CAPS_DownwardShortwaveRadiationFlux-Accum_Sfc_RLatLon0.03_PT012H.grib2 2026-04-28 18:07 2.7M
20260428T12Z_MSC_CAPS_FreezingRain-Accum_Sfc_RLatLon0.03_PT012H.grib2 2026-04-28 18:07 445K
20260428T12Z_MSC_CAPS_GeopotentialHeight_IsbL-0050_RLatLon0.03_PT012H.grib2 2026-04-28 18:07 647K
20260428T12Z_MSC_CAPS_GeopotentialHeight_IsbL-0100_RLatLon0.03_PT012H.grib2 2026-04-28 18:07 764K
20260428T12Z_MSC_CAPS_GeopotentialHeight_IsbL-0150_RLatLon0.03_PT012H.grib2 2026-04-28 18:07 724K
20260428T12Z_MSC_CAPS_GeopotentialHeight_IsbL-0175_RLatLon0.03_PT012H.grib2 2026-04-28 18:07 728K
20260428T12Z_MSC_CAPS_GeopotentialHeight_IsbL-0200_RLatLon0.03_PT012H.grib2 2026-04-28 18:07 740K
20260428T12Z_MSC_CAPS_GeopotentialHeight_IsbL-0225_RLatLon0.03_PT012H.grib2 2026-04-28 18:07 748K
20260428T12Z_MSC_CAPS_GeopotentialHeight_IsbL-0250_RLatLon0.03_PT012H.grib2 2026-04-28 18:07 758K
20260428T12Z_MSC_CAPS_GeopotentialHeight_IsbL-0275_RLatLon0.03_PT012H.grib2 2026-04-28 18:07 765K
20260428T12Z_MSC_CAPS_GeopotentialHeight_IsbL-0300_RLatLon0.03_PT012H.grib2 2026-04-28 18:07 771K
20260428T12Z_MSC_CAPS_GeopotentialHeight_IsbL-0350_RLatLon0.03_PT012H.grib2 2026-04-28 18:07 771K
20260428T12Z_MSC_CAPS_GeopotentialHeight_IsbL-0400_RLatLon0.03_PT012H.grib2 2026-04-28 18:07 768K
20260428T12Z_MSC_CAPS_GeopotentialHeight_IsbL-0450_RLatLon0.03_PT012H.grib2 2026-04-28 18:07 761K
20260428T12Z_MSC_CAPS_GeopotentialHeight_IsbL-0500_RLatLon0.03_PT012H.grib2 2026-04-28 18:07 757K
20260428T12Z_MSC_CAPS_GeopotentialHeight_IsbL-0550_RLatLon0.03_PT012H.grib2 2026-04-28 18:07 745K
20260428T12Z_MSC_CAPS_GeopotentialHeight_IsbL-0600_RLatLon0.03_PT012H.grib2 2026-04-28 18:07 631K
20260428T12Z_MSC_CAPS_GeopotentialHeight_IsbL-0650_RLatLon0.03_PT012H.grib2 2026-04-28 18:07 627K
20260428T12Z_MSC_CAPS_GeopotentialHeight_IsbL-0700_RLatLon0.03_PT012H.grib2 2026-04-28 18:07 796K
20260428T12Z_MSC_CAPS_GeopotentialHeight_IsbL-0750_RLatLon0.03_PT012H.grib2 2026-04-28 18:07 800K
20260428T12Z_MSC_CAPS_GeopotentialHeight_IsbL-0800_RLatLon0.03_PT012H.grib2 2026-04-28 18:07 805K
20260428T12Z_MSC_CAPS_GeopotentialHeight_IsbL-0850_RLatLon0.03_PT012H.grib2 2026-04-28 18:07 891K
20260428T12Z_MSC_CAPS_GeopotentialHeight_IsbL-0875_RLatLon0.03_PT012H.grib2 2026-04-28 18:07 900K
20260428T12Z_MSC_CAPS_GeopotentialHeight_IsbL-0900_RLatLon0.03_PT012H.grib2 2026-04-28 18:07 908K
20260428T12Z_MSC_CAPS_GeopotentialHeight_IsbL-0925_RLatLon0.03_PT012H.grib2 2026-04-28 18:07 916K
20260428T12Z_MSC_CAPS_GeopotentialHeight_IsbL-0950_RLatLon0.03_PT012H.grib2 2026-04-28 18:07 928K
20260428T12Z_MSC_CAPS_GeopotentialHeight_IsbL-0970_RLatLon0.03_PT012H.grib2 2026-04-28 18:07 940K
20260428T12Z_MSC_CAPS_GeopotentialHeight_IsbL-0985_RLatLon0.03_PT012H.grib2 2026-04-28 18:07 949K
20260428T12Z_MSC_CAPS_GeopotentialHeight_IsbL-1000_RLatLon0.03_PT012H.grib2 2026-04-28 18:07 959K
20260428T12Z_MSC_CAPS_GeopotentialHeight_IsbL-1015_RLatLon0.03_PT012H.grib2 2026-04-28 18:07 971K
20260428T12Z_MSC_CAPS_GeopotentialHeight_Sfc_RLatLon0.03_PT012H.grib2 2026-04-28 18:07 1.0M
20260428T12Z_MSC_CAPS_IcePellets-Accum_Sfc_RLatLon0.03_PT012H.grib2 2026-04-28 18:07 21K
20260428T12Z_MSC_CAPS_LatentHeatNetFlux_Sfc_RLatLon0.03_PT012H.grib2 2026-04-28 18:07 1.9M
20260428T12Z_MSC_CAPS_LiftedIndex-MU-VT_IsbL-0500_RLatLon0.03_PT012H.grib2 2026-04-28 18:07 3.3M
20260428T12Z_MSC_CAPS_MixedLayerThickness_Sfc_RLatLon0.03_PT012H.nc 2026-04-28 18:11 17M
20260428T12Z_MSC_CAPS_NetLongwaveRadiationFlux-Accum_Sfc_RLatLon0.03_PT012H.grib2 2026-04-28 18:07 3.1M
20260428T12Z_MSC_CAPS_NetShortwaveRadiationFlux-Accum_Sfc_RLatLon0.03_PT012H.grib2 2026-04-28 18:07 2.8M
20260428T12Z_MSC_CAPS_PlanetaryBoundaryLayerHeight_Sfc_RLatLon0.03_PT012H.grib2 2026-04-28 18:07 2.9M
20260428T12Z_MSC_CAPS_Precip-Accum_Sfc_RLatLon0.03_PT012H.grib2 2026-04-28 18:07 3.5M
20260428T12Z_MSC_CAPS_PrecipRate_Sfc_RLatLon0.03_PT012H.grib2 2026-04-28 18:07 437K
20260428T12Z_MSC_CAPS_PrecipType-Instant_Sfc_RLatLon0.03_PT012H.grib2 2026-04-28 18:07 1.7M
20260428T12Z_MSC_CAPS_Pressure_MSL_RLatLon0.03_PT012H.grib2 2026-04-28 18:07 767K
20260428T12Z_MSC_CAPS_Pressure_Sfc_RLatLon0.03_PT012H.grib2 2026-04-28 18:07 1.2M
20260428T12Z_MSC_CAPS_RadiativeTemp_Sfc_RLatLon0.03_PT012H.grib2 2026-04-28 18:07 2.1M
20260428T12Z_MSC_CAPS_Rain-Accum_Sfc_RLatLon0.03_PT012H.grib2 2026-04-28 18:07 1.3M
20260428T12Z_MSC_CAPS_RelativeHumidity_AGL-120m_RLatLon0.03_PT012H.grib2 2026-04-28 18:07 2.8M
20260428T12Z_MSC_CAPS_RelativeHumidity_AGL-2m_RLatLon0.03_PT012H.grib2 2026-04-28 18:07 2.9M
20260428T12Z_MSC_CAPS_RelativeHumidity_AGL-40m_RLatLon0.03_PT012H.grib2 2026-04-28 18:07 2.9M
20260428T12Z_MSC_CAPS_RelativeHumidity_AGL-80m_RLatLon0.03_PT012H.grib2 2026-04-28 18:07 2.8M
20260428T12Z_MSC_CAPS_RelativeHumidity_IsbL-0050_RLatLon0.03_PT012H.grib2 2026-04-28 18:07 1.0M
20260428T12Z_MSC_CAPS_RelativeHumidity_IsbL-0100_RLatLon0.03_PT012H.grib2 2026-04-28 18:07 890K
20260428T12Z_MSC_CAPS_RelativeHumidity_IsbL-0150_RLatLon0.03_PT012H.grib2 2026-04-28 18:07 544K
20260428T12Z_MSC_CAPS_RelativeHumidity_IsbL-0175_RLatLon0.03_PT012H.grib2 2026-04-28 18:07 484K
20260428T12Z_MSC_CAPS_RelativeHumidity_IsbL-0200_RLatLon0.03_PT012H.grib2 2026-04-28 18:07 645K
20260428T12Z_MSC_CAPS_RelativeHumidity_IsbL-0225_RLatLon0.03_PT012H.grib2 2026-04-28 18:07 869K
20260428T12Z_MSC_CAPS_RelativeHumidity_IsbL-0250_RLatLon0.03_PT012H.grib2 2026-04-28 18:07 1.1M
20260428T12Z_MSC_CAPS_RelativeHumidity_IsbL-0275_RLatLon0.03_PT012H.grib2 2026-04-28 18:07 1.4M
20260428T12Z_MSC_CAPS_RelativeHumidity_IsbL-0300_RLatLon0.03_PT012H.grib2 2026-04-28 18:07 1.5M
20260428T12Z_MSC_CAPS_RelativeHumidity_IsbL-0350_RLatLon0.03_PT012H.grib2 2026-04-28 18:07 1.8M
20260428T12Z_MSC_CAPS_RelativeHumidity_IsbL-0400_RLatLon0.03_PT012H.grib2 2026-04-28 18:07 1.9M
20260428T12Z_MSC_CAPS_RelativeHumidity_IsbL-0450_RLatLon0.03_PT012H.grib2 2026-04-28 18:07 2.0M
20260428T12Z_MSC_CAPS_RelativeHumidity_IsbL-0500_RLatLon0.03_PT012H.grib2 2026-04-28 18:07 2.1M
20260428T12Z_MSC_CAPS_RelativeHumidity_IsbL-0550_RLatLon0.03_PT012H.grib2 2026-04-28 18:07 2.1M
20260428T12Z_MSC_CAPS_RelativeHumidity_IsbL-0600_RLatLon0.03_PT012H.grib2 2026-04-28 18:07 2.1M
20260428T12Z_MSC_CAPS_RelativeHumidity_IsbL-0650_RLatLon0.03_PT012H.grib2 2026-04-28 18:07 2.2M
20260428T12Z_MSC_CAPS_RelativeHumidity_IsbL-0700_RLatLon0.03_PT012H.grib2 2026-04-28 18:07 2.2M
20260428T12Z_MSC_CAPS_RelativeHumidity_IsbL-0750_RLatLon0.03_PT012H.grib2 2026-04-28 18:07 2.3M
20260428T12Z_MSC_CAPS_RelativeHumidity_IsbL-0800_RLatLon0.03_PT012H.grib2 2026-04-28 18:07 2.3M
20260428T12Z_MSC_CAPS_RelativeHumidity_IsbL-0850_RLatLon0.03_PT012H.grib2 2026-04-28 18:07 2.4M
20260428T12Z_MSC_CAPS_RelativeHumidity_IsbL-0875_RLatLon0.03_PT012H.grib2 2026-04-28 18:07 2.5M
20260428T12Z_MSC_CAPS_RelativeHumidity_IsbL-0900_RLatLon0.03_PT012H.grib2 2026-04-28 18:07 2.5M
20260428T12Z_MSC_CAPS_RelativeHumidity_IsbL-0925_RLatLon0.03_PT012H.grib2 2026-04-28 18:07 2.6M
20260428T12Z_MSC_CAPS_RelativeHumidity_IsbL-0950_RLatLon0.03_PT012H.grib2 2026-04-28 18:07 2.6M
20260428T12Z_MSC_CAPS_RelativeHumidity_IsbL-0970_RLatLon0.03_PT012H.grib2 2026-04-28 18:07 2.7M
20260428T12Z_MSC_CAPS_RelativeHumidity_IsbL-0985_RLatLon0.03_PT012H.grib2 2026-04-28 18:07 2.8M
20260428T12Z_MSC_CAPS_RelativeHumidity_IsbL-1000_RLatLon0.03_PT012H.grib2 2026-04-28 18:07 2.8M
20260428T12Z_MSC_CAPS_RelativeHumidity_IsbL-1015_RLatLon0.03_PT012H.grib2 2026-04-28 18:07 2.9M
20260428T12Z_MSC_CAPS_Runoff-Accum_Sfc_RLatLon0.03_PT012H.grib2 2026-04-28 18:07 302K
20260428T12Z_MSC_CAPS_SeaIceAreaFraction_Sfc_RLatLon0.03_PT012H.nc 2026-04-28 18:11 15M
20260428T12Z_MSC_CAPS_SeaIceCompressiveStrength_Sfc_RLatLon0.03_PT012H.nc 2026-04-28 18:11 15M
20260428T12Z_MSC_CAPS_SeaIceDivergence_Sfc_RLatLon0.03_PT012H.nc 2026-04-28 18:11 15M
20260428T12Z_MSC_CAPS_SeaIceInternalPressure_Sfc_RLatLon0.03_PT012H.nc 2026-04-28 18:11 16M
20260428T12Z_MSC_CAPS_SeaIceShear_Sfc_RLatLon0.03_PT012H.nc 2026-04-28 18:11 15M
20260428T12Z_MSC_CAPS_SeaIceSnowTemp_Sfc_RLatLon0.03_PT012H.nc 2026-04-28 18:11 15M
20260428T12Z_MSC_CAPS_SeaIceSnowVolume_Sfc_RLatLon0.03_PT012H.nc 2026-04-28 18:11 15M
20260428T12Z_MSC_CAPS_SeaIceVelocityX_Sfc_RLatLon0.03_PT012H.nc 2026-04-28 18:11 15M
20260428T12Z_MSC_CAPS_SeaIceVelocityY_Sfc_RLatLon0.03_PT012H.nc 2026-04-28 18:11 15M
20260428T12Z_MSC_CAPS_SeaIceVolume_Sfc_RLatLon0.03_PT012H.nc 2026-04-28 18:11 15M
20260428T12Z_MSC_CAPS_SeaSurfaceHeight_Sfc_RLatLon0.03_PT012H.nc 2026-04-28 18:11 16M
20260428T12Z_MSC_CAPS_SeaWaterSalinity_DBS-0.5m_RLatLon0.03_PT012H.nc 2026-04-28 18:11 16M
20260428T12Z_MSC_CAPS_SeaWaterSalinity_DBS-all_RLatLon0.03_PT012H.nc 2026-04-28 18:11 107M
20260428T12Z_MSC_CAPS_SeaWaterTemp_DBS-0.5m_RLatLon0.03_PT012H.nc 2026-04-28 18:11 14M
20260428T12Z_MSC_CAPS_SeaWaterTemp_DBS-all_RLatLon0.03_PT012H.nc 2026-04-28 18:11 87M
20260428T12Z_MSC_CAPS_SeaWaterVelocityX_DBS-0.5m_RLatLon0.03_PT012H.nc 2026-04-28 18:11 17M
20260428T12Z_MSC_CAPS_SeaWaterVelocityX_DBS-all_RLatLon0.03_PT012H.nc 2026-04-28 18:11 210M
20260428T12Z_MSC_CAPS_SeaWaterVelocityY_DBS-0.5m_RLatLon0.03_PT012H.nc 2026-04-28 18:11 18M
20260428T12Z_MSC_CAPS_SeaWaterVelocityY_DBS-all_RLatLon0.03_PT012H.nc 2026-04-28 18:11 217M
20260428T12Z_MSC_CAPS_SensibleHeatNetFlux_Sfc_RLatLon0.03_PT012H.grib2 2026-04-28 18:07 2.2M
20260428T12Z_MSC_CAPS_ShowalterIndex_IsbL-0500_RLatLon0.03_PT012H.grib2 2026-04-28 18:07 4.3M
20260428T12Z_MSC_CAPS_Snow-Accum_Sfc_RLatLon0.03_PT012H.grib2 2026-04-28 18:07 2.9M
20260428T12Z_MSC_CAPS_SnowDensity_Sfc_RLatLon0.03_PT012H.grib2 2026-04-28 18:07 1.2M
20260428T12Z_MSC_CAPS_SnowDepthWaterEquivalent_Sfc_RLatLon0.03_PT012H.grib2 2026-04-28 18:07 714K
20260428T12Z_MSC_CAPS_SnowDepth_Sfc_RLatLon0.03_PT012H.grib2 2026-04-28 18:07 1.2M
20260428T12Z_MSC_CAPS_SoilTemp_DBS-0to10cm_RLatLon0.03_PT012H.grib2 2026-04-28 18:07 1.5M
20260428T12Z_MSC_CAPS_SoilTemp_Sfc_RLatLon0.03_PT012H.grib2 2026-04-28 18:07 1.9M
20260428T12Z_MSC_CAPS_SoilVolumetricIceContent_Sfc_RLatLon0.03_PT012H.grib2 2026-04-28 18:07 1.4M
20260428T12Z_MSC_CAPS_SoilVolumetricWaterContent_DBS-0to10cm_RLatLon0.03_PT012H.grib2 2026-04-28 18:07 1.2M
20260428T12Z_MSC_CAPS_SoilVolumetricWaterContent_DBS-0to1cm_RLatLon0.03_PT012H.grib2 2026-04-28 18:07 1.7M
20260428T12Z_MSC_CAPS_SpecificHumidity_AGL-120m_RLatLon0.03_PT012H.grib2 2026-04-28 18:07 1.7M
20260428T12Z_MSC_CAPS_SpecificHumidity_AGL-2m_RLatLon0.03_PT012H.grib2 2026-04-28 18:07 2.0M
20260428T12Z_MSC_CAPS_SpecificHumidity_AGL-40m_RLatLon0.03_PT012H.grib2 2026-04-28 18:07 1.8M
20260428T12Z_MSC_CAPS_SpecificHumidity_AGL-80m_RLatLon0.03_PT012H.grib2 2026-04-28 18:07 1.8M
20260428T12Z_MSC_CAPS_SpecificHumidity_IsbL-0050_RLatLon0.03_PT012H.grib2 2026-04-28 18:07 880K
20260428T12Z_MSC_CAPS_SpecificHumidity_IsbL-0100_RLatLon0.03_PT012H.grib2 2026-04-28 18:07 1.0M
20260428T12Z_MSC_CAPS_SpecificHumidity_IsbL-0150_RLatLon0.03_PT012H.grib2 2026-04-28 18:07 1.0M
20260428T12Z_MSC_CAPS_SpecificHumidity_IsbL-0175_RLatLon0.03_PT012H.grib2 2026-04-28 18:07 968K
20260428T12Z_MSC_CAPS_SpecificHumidity_IsbL-0200_RLatLon0.03_PT012H.grib2 2026-04-28 18:07 840K
20260428T12Z_MSC_CAPS_SpecificHumidity_IsbL-0225_RLatLon0.03_PT012H.grib2 2026-04-28 18:07 1.0M
20260428T12Z_MSC_CAPS_SpecificHumidity_IsbL-0250_RLatLon0.03_PT012H.grib2 2026-04-28 18:07 1.0M
20260428T12Z_MSC_CAPS_SpecificHumidity_IsbL-0275_RLatLon0.03_PT012H.grib2 2026-04-28 18:07 1.1M
20260428T12Z_MSC_CAPS_SpecificHumidity_IsbL-0300_RLatLon0.03_PT012H.grib2 2026-04-28 18:07 1.0M
20260428T12Z_MSC_CAPS_SpecificHumidity_IsbL-0350_RLatLon0.03_PT012H.grib2 2026-04-28 18:07 1.1M
20260428T12Z_MSC_CAPS_SpecificHumidity_IsbL-0400_RLatLon0.03_PT012H.grib2 2026-04-28 18:07 1.1M
20260428T12Z_MSC_CAPS_SpecificHumidity_IsbL-0450_RLatLon0.03_PT012H.grib2 2026-04-28 18:07 1.1M
20260428T12Z_MSC_CAPS_SpecificHumidity_IsbL-0500_RLatLon0.03_PT012H.grib2 2026-04-28 18:07 1.0M
20260428T12Z_MSC_CAPS_SpecificHumidity_IsbL-0550_RLatLon0.03_PT012H.grib2 2026-04-28 18:07 1.2M
20260428T12Z_MSC_CAPS_SpecificHumidity_IsbL-0600_RLatLon0.03_PT012H.grib2 2026-04-28 18:07 1.3M
20260428T12Z_MSC_CAPS_SpecificHumidity_IsbL-0650_RLatLon0.03_PT012H.grib2 2026-04-28 18:07 1.6M
20260428T12Z_MSC_CAPS_SpecificHumidity_IsbL-0700_RLatLon0.03_PT012H.grib2 2026-04-28 18:07 1.5M
20260428T12Z_MSC_CAPS_SpecificHumidity_IsbL-0750_RLatLon0.03_PT012H.grib2 2026-04-28 18:07 1.7M
20260428T12Z_MSC_CAPS_SpecificHumidity_IsbL-0800_RLatLon0.03_PT012H.grib2 2026-04-28 18:07 1.4M
20260428T12Z_MSC_CAPS_SpecificHumidity_IsbL-0850_RLatLon0.03_PT012H.grib2 2026-04-28 18:07 1.6M
20260428T12Z_MSC_CAPS_SpecificHumidity_IsbL-0875_RLatLon0.03_PT012H.grib2 2026-04-28 18:07 1.7M
20260428T12Z_MSC_CAPS_SpecificHumidity_IsbL-0900_RLatLon0.03_PT012H.grib2 2026-04-28 18:07 1.7M
20260428T12Z_MSC_CAPS_SpecificHumidity_IsbL-0925_RLatLon0.03_PT012H.grib2 2026-04-28 18:07 1.8M
20260428T12Z_MSC_CAPS_SpecificHumidity_IsbL-0950_RLatLon0.03_PT012H.grib2 2026-04-28 18:07 1.9M
20260428T12Z_MSC_CAPS_SpecificHumidity_IsbL-0970_RLatLon0.03_PT012H.grib2 2026-04-28 18:07 1.9M
20260428T12Z_MSC_CAPS_SpecificHumidity_IsbL-0985_RLatLon0.03_PT012H.grib2 2026-04-28 18:07 1.9M
20260428T12Z_MSC_CAPS_SpecificHumidity_IsbL-1000_RLatLon0.03_PT012H.grib2 2026-04-28 18:07 2.0M
20260428T12Z_MSC_CAPS_SpecificHumidity_IsbL-1015_RLatLon0.03_PT012H.grib2 2026-04-28 18:07 2.1M
20260428T12Z_MSC_CAPS_SpecificHumidity_Sfc_RLatLon0.03_PT012H.grib2 2026-04-28 18:07 2.5M
20260428T12Z_MSC_CAPS_StormRelativeHelicity_Sfc_RLatLon0.03_PT012H.grib2 2026-04-28 18:07 3.2M
20260428T12Z_MSC_CAPS_Thickness_IsbL-1000to0500_RLatLon0.03_PT012H.grib2 2026-04-28 18:07 429K
20260428T12Z_MSC_CAPS_TotalCloudCover_Sfc_RLatLon0.03_PT012H.grib2 2026-04-28 18:07 3.5M
20260428T12Z_MSC_CAPS_TurboclineDepth_Sfc_RLatLon0.03_PT012H.nc 2026-04-28 18:11 16M
20260428T12Z_MSC_CAPS_UpwardLongwaveRadiationFlux_NTAtm_RLatLon0.03_PT012H.grib2 2026-04-28 18:07 2.8M
20260428T12Z_MSC_CAPS_UpwardShortwaveRadiationFlux_NTAtm_RLatLon0.03_PT012H.grib2 2026-04-28 18:07 2.0M
20260428T12Z_MSC_CAPS_VerticalVelocity_IsbL-0250_RLatLon0.03_PT012H.grib2 2026-04-28 18:07 880K
20260428T12Z_MSC_CAPS_VerticalVelocity_IsbL-0500_RLatLon0.03_PT012H.grib2 2026-04-28 18:07 863K
20260428T12Z_MSC_CAPS_VerticalVelocity_IsbL-0700_RLatLon0.03_PT012H.grib2 2026-04-28 18:07 918K
20260428T12Z_MSC_CAPS_VerticalVelocity_IsbL-0850_RLatLon0.03_PT012H.grib2 2026-04-28 18:07 1.1M
20260428T12Z_MSC_CAPS_VerticalVelocity_IsbL-1000_RLatLon0.03_PT012H.grib2 2026-04-28 18:07 1.1M
20260428T12Z_MSC_CAPS_WindDir_AGL-10m_RLatLon0.03_PT012H.grib2 2026-04-28 18:07 2.4M
20260428T12Z_MSC_CAPS_WindDir_AGL-120m_RLatLon0.03_PT012H.grib2 2026-04-28 18:07 1.3M
20260428T12Z_MSC_CAPS_WindDir_AGL-40m_RLatLon0.03_PT012H.grib2 2026-04-28 18:07 1.4M
20260428T12Z_MSC_CAPS_WindDir_AGL-80m_RLatLon0.03_PT012H.grib2 2026-04-28 18:07 1.3M
20260428T12Z_MSC_CAPS_WindDir_IsbL-0050_RLatLon0.03_PT012H.grib2 2026-04-28 18:07 1.0M
20260428T12Z_MSC_CAPS_WindDir_IsbL-0100_RLatLon0.03_PT012H.grib2 2026-04-28 18:07 1.0M
20260428T12Z_MSC_CAPS_WindDir_IsbL-0150_RLatLon0.03_PT012H.grib2 2026-04-28 18:07 1.0M
20260428T12Z_MSC_CAPS_WindDir_IsbL-0175_RLatLon0.03_PT012H.grib2 2026-04-28 18:07 1.1M
20260428T12Z_MSC_CAPS_WindDir_IsbL-0200_RLatLon0.03_PT012H.grib2 2026-04-28 18:07 1.1M
20260428T12Z_MSC_CAPS_WindDir_IsbL-0225_RLatLon0.03_PT012H.grib2 2026-04-28 18:07 1.1M
20260428T12Z_MSC_CAPS_WindDir_IsbL-0250_RLatLon0.03_PT012H.grib2 2026-04-28 18:07 1.1M
20260428T12Z_MSC_CAPS_WindDir_IsbL-0275_RLatLon0.03_PT012H.grib2 2026-04-28 18:07 1.1M
20260428T12Z_MSC_CAPS_WindDir_IsbL-0300_RLatLon0.03_PT012H.grib2 2026-04-28 18:07 1.1M
20260428T12Z_MSC_CAPS_WindDir_IsbL-0350_RLatLon0.03_PT012H.grib2 2026-04-28 18:07 1.1M
20260428T12Z_MSC_CAPS_WindDir_IsbL-0400_RLatLon0.03_PT012H.grib2 2026-04-28 18:07 1.1M
20260428T12Z_MSC_CAPS_WindDir_IsbL-0450_RLatLon0.03_PT012H.grib2 2026-04-28 18:07 1.2M
20260428T12Z_MSC_CAPS_WindDir_IsbL-0500_RLatLon0.03_PT012H.grib2 2026-04-28 18:07 1.2M
20260428T12Z_MSC_CAPS_WindDir_IsbL-0550_RLatLon0.03_PT012H.grib2 2026-04-28 18:07 1.2M
20260428T12Z_MSC_CAPS_WindDir_IsbL-0600_RLatLon0.03_PT012H.grib2 2026-04-28 18:07 1.3M
20260428T12Z_MSC_CAPS_WindDir_IsbL-0650_RLatLon0.03_PT012H.grib2 2026-04-28 18:07 1.3M
20260428T12Z_MSC_CAPS_WindDir_IsbL-0700_RLatLon0.03_PT012H.grib2 2026-04-28 18:07 1.4M
20260428T12Z_MSC_CAPS_WindDir_IsbL-0750_RLatLon0.03_PT012H.grib2 2026-04-28 18:07 1.5M
20260428T12Z_MSC_CAPS_WindDir_IsbL-0800_RLatLon0.03_PT012H.grib2 2026-04-28 18:07 1.6M
20260428T12Z_MSC_CAPS_WindDir_IsbL-0850_RLatLon0.03_PT012H.grib2 2026-04-28 18:07 1.8M
20260428T12Z_MSC_CAPS_WindDir_IsbL-0875_RLatLon0.03_PT012H.grib2 2026-04-28 18:07 1.9M
20260428T12Z_MSC_CAPS_WindDir_IsbL-0900_RLatLon0.03_PT012H.grib2 2026-04-28 18:07 2.0M
20260428T12Z_MSC_CAPS_WindDir_IsbL-0925_RLatLon0.03_PT012H.grib2 2026-04-28 18:07 2.1M
20260428T12Z_MSC_CAPS_WindDir_IsbL-0950_RLatLon0.03_PT012H.grib2 2026-04-28 18:07 2.1M
20260428T12Z_MSC_CAPS_WindDir_IsbL-0970_RLatLon0.03_PT012H.grib2 2026-04-28 18:07 2.2M
20260428T12Z_MSC_CAPS_WindDir_IsbL-0985_RLatLon0.03_PT012H.grib2 2026-04-28 18:07 2.2M
20260428T12Z_MSC_CAPS_WindDir_IsbL-1000_RLatLon0.03_PT012H.grib2 2026-04-28 18:07 2.3M
20260428T12Z_MSC_CAPS_WindDir_IsbL-1015_RLatLon0.03_PT012H.grib2 2026-04-28 18:07 2.4M
20260428T12Z_MSC_CAPS_WindGust-Max_AGL-10m_RLatLon0.03_PT012H.grib2 2026-04-28 18:07 2.4M
20260428T12Z_MSC_CAPS_WindGust-Min_AGL-10m_RLatLon0.03_PT012H.grib2 2026-04-28 18:07 2.5M
20260428T12Z_MSC_CAPS_WindGust_AGL-10m_RLatLon0.03_PT012H.grib2 2026-04-28 18:07 2.5M
20260428T12Z_MSC_CAPS_WindSpeed_AGL-10m_RLatLon0.03_PT012H.grib2 2026-04-28 18:07 2.1M
20260428T12Z_MSC_CAPS_WindSpeed_AGL-120m_RLatLon0.03_PT012H.grib2 2026-04-28 18:07 1.2M
20260428T12Z_MSC_CAPS_WindSpeed_AGL-40m_RLatLon0.03_PT012H.grib2 2026-04-28 18:07 1.2M
20260428T12Z_MSC_CAPS_WindSpeed_AGL-80m_RLatLon0.03_PT012H.grib2 2026-04-28 18:07 1.2M
20260428T12Z_MSC_CAPS_WindSpeed_IsbL-0050_RLatLon0.03_PT012H.grib2 2026-04-28 18:07 1.0M
20260428T12Z_MSC_CAPS_WindSpeed_IsbL-0100_RLatLon0.03_PT012H.grib2 2026-04-28 18:07 1.0M
20260428T12Z_MSC_CAPS_WindSpeed_IsbL-0150_RLatLon0.03_PT012H.grib2 2026-04-28 18:07 1.1M
20260428T12Z_MSC_CAPS_WindSpeed_IsbL-0175_RLatLon0.03_PT012H.grib2 2026-04-28 18:07 1.1M
20260428T12Z_MSC_CAPS_WindSpeed_IsbL-0200_RLatLon0.03_PT012H.grib2 2026-04-28 18:07 1.2M
20260428T12Z_MSC_CAPS_WindSpeed_IsbL-0225_RLatLon0.03_PT012H.grib2 2026-04-28 18:07 945K
20260428T12Z_MSC_CAPS_WindSpeed_IsbL-0250_RLatLon0.03_PT012H.grib2 2026-04-28 18:07 964K
20260428T12Z_MSC_CAPS_WindSpeed_IsbL-0275_RLatLon0.03_PT012H.grib2 2026-04-28 18:07 971K
20260428T12Z_MSC_CAPS_WindSpeed_IsbL-0300_RLatLon0.03_PT012H.grib2 2026-04-28 18:07 1.0M
20260428T12Z_MSC_CAPS_WindSpeed_IsbL-0350_RLatLon0.03_PT012H.grib2 2026-04-28 18:07 1.0M
20260428T12Z_MSC_CAPS_WindSpeed_IsbL-0400_RLatLon0.03_PT012H.grib2 2026-04-28 18:07 1.0M
20260428T12Z_MSC_CAPS_WindSpeed_IsbL-0450_RLatLon0.03_PT012H.grib2 2026-04-28 18:07 1.0M
20260428T12Z_MSC_CAPS_WindSpeed_IsbL-0500_RLatLon0.03_PT012H.grib2 2026-04-28 18:07 1.3M
20260428T12Z_MSC_CAPS_WindSpeed_IsbL-0550_RLatLon0.03_PT012H.grib2 2026-04-28 18:07 1.2M
20260428T12Z_MSC_CAPS_WindSpeed_IsbL-0600_RLatLon0.03_PT012H.grib2 2026-04-28 18:07 1.3M
20260428T12Z_MSC_CAPS_WindSpeed_IsbL-0650_RLatLon0.03_PT012H.grib2 2026-04-28 18:07 1.4M
20260428T12Z_MSC_CAPS_WindSpeed_IsbL-0700_RLatLon0.03_PT012H.grib2 2026-04-28 18:07 1.5M
20260428T12Z_MSC_CAPS_WindSpeed_IsbL-0750_RLatLon0.03_PT012H.grib2 2026-04-28 18:07 1.5M
20260428T12Z_MSC_CAPS_WindSpeed_IsbL-0800_RLatLon0.03_PT012H.grib2 2026-04-28 18:07 1.6M
20260428T12Z_MSC_CAPS_WindSpeed_IsbL-0850_RLatLon0.03_PT012H.grib2 2026-04-28 18:07 1.6M
20260428T12Z_MSC_CAPS_WindSpeed_IsbL-0875_RLatLon0.03_PT012H.grib2 2026-04-28 18:07 1.7M
20260428T12Z_MSC_CAPS_WindSpeed_IsbL-0900_RLatLon0.03_PT012H.grib2 2026-04-28 18:07 1.7M
20260428T12Z_MSC_CAPS_WindSpeed_IsbL-0925_RLatLon0.03_PT012H.grib2 2026-04-28 18:07 1.8M
20260428T12Z_MSC_CAPS_WindSpeed_IsbL-0950_RLatLon0.03_PT012H.grib2 2026-04-28 18:07 1.9M
20260428T12Z_MSC_CAPS_WindSpeed_IsbL-0970_RLatLon0.03_PT012H.grib2 2026-04-28 18:07 1.9M
20260428T12Z_MSC_CAPS_WindSpeed_IsbL-0985_RLatLon0.03_PT012H.grib2 2026-04-28 18:07 2.0M
20260428T12Z_MSC_CAPS_WindSpeed_IsbL-1000_RLatLon0.03_PT012H.grib2 2026-04-28 18:07 2.0M
20260428T12Z_MSC_CAPS_WindSpeed_IsbL-1015_RLatLon0.03_PT012H.grib2 2026-04-28 18:07 2.0M
20260428T12Z_MSC_CAPS_WindU_AGL-10m_RLatLon0.03_PT012H.grib2 2026-04-28 18:07 1.9M
20260428T12Z_MSC_CAPS_WindU_AGL-120m_RLatLon0.03_PT012H.grib2 2026-04-28 18:07 894K
20260428T12Z_MSC_CAPS_WindU_AGL-40m_RLatLon0.03_PT012H.grib2 2026-04-28 18:07 922K
20260428T12Z_MSC_CAPS_WindU_AGL-80m_RLatLon0.03_PT012H.grib2 2026-04-28 18:07 897K
20260428T12Z_MSC_CAPS_WindU_IsbL-0050_RLatLon0.03_PT012H.grib2 2026-04-28 18:07 940K
20260428T12Z_MSC_CAPS_WindU_IsbL-0100_RLatLon0.03_PT012H.grib2 2026-04-28 18:07 886K
20260428T12Z_MSC_CAPS_WindU_IsbL-0150_RLatLon0.03_PT012H.grib2 2026-04-28 18:07 712K
20260428T12Z_MSC_CAPS_WindU_IsbL-0175_RLatLon0.03_PT012H.grib2 2026-04-28 18:07 851K
20260428T12Z_MSC_CAPS_WindU_IsbL-0200_RLatLon0.03_PT012H.grib2 2026-04-28 18:07 865K
20260428T12Z_MSC_CAPS_WindU_IsbL-0225_RLatLon0.03_PT012H.grib2 2026-04-28 18:07 887K
20260428T12Z_MSC_CAPS_WindU_IsbL-0250_RLatLon0.03_PT012H.grib2 2026-04-28 18:07 909K
20260428T12Z_MSC_CAPS_WindU_IsbL-0275_RLatLon0.03_PT012H.grib2 2026-04-28 18:07 706K
20260428T12Z_MSC_CAPS_WindU_IsbL-0300_RLatLon0.03_PT012H.grib2 2026-04-28 18:07 716K
20260428T12Z_MSC_CAPS_WindU_IsbL-0350_RLatLon0.03_PT012H.grib2 2026-04-28 18:07 938K
20260428T12Z_MSC_CAPS_WindU_IsbL-0400_RLatLon0.03_PT012H.grib2 2026-04-28 18:07 941K
20260428T12Z_MSC_CAPS_WindU_IsbL-0450_RLatLon0.03_PT012H.grib2 2026-04-28 18:07 956K
20260428T12Z_MSC_CAPS_WindU_IsbL-0500_RLatLon0.03_PT012H.grib2 2026-04-28 18:07 1.0M
20260428T12Z_MSC_CAPS_WindU_IsbL-0550_RLatLon0.03_PT012H.grib2 2026-04-28 18:07 897K
20260428T12Z_MSC_CAPS_WindU_IsbL-0600_RLatLon0.03_PT012H.grib2 2026-04-28 18:07 924K
20260428T12Z_MSC_CAPS_WindU_IsbL-0650_RLatLon0.03_PT012H.grib2 2026-04-28 18:07 946K
20260428T12Z_MSC_CAPS_WindU_IsbL-0700_RLatLon0.03_PT012H.grib2 2026-04-28 18:07 1.0M
20260428T12Z_MSC_CAPS_WindU_IsbL-0750_RLatLon0.03_PT012H.grib2 2026-04-28 18:07 1.0M
20260428T12Z_MSC_CAPS_WindU_IsbL-0800_RLatLon0.03_PT012H.grib2 2026-04-28 18:07 1.1M
20260428T12Z_MSC_CAPS_WindU_IsbL-0850_RLatLon0.03_PT012H.grib2 2026-04-28 18:07 1.2M
20260428T12Z_MSC_CAPS_WindU_IsbL-0875_RLatLon0.03_PT012H.grib2 2026-04-28 18:07 1.3M
20260428T12Z_MSC_CAPS_WindU_IsbL-0900_RLatLon0.03_PT012H.grib2 2026-04-28 18:07 1.3M
20260428T12Z_MSC_CAPS_WindU_IsbL-0925_RLatLon0.03_PT012H.grib2 2026-04-28 18:07 1.4M
20260428T12Z_MSC_CAPS_WindU_IsbL-0950_RLatLon0.03_PT012H.grib2 2026-04-28 18:07 1.3M
20260428T12Z_MSC_CAPS_WindU_IsbL-0970_RLatLon0.03_PT012H.grib2 2026-04-28 18:07 1.4M
20260428T12Z_MSC_CAPS_WindU_IsbL-0985_RLatLon0.03_PT012H.grib2 2026-04-28 18:07 1.4M
20260428T12Z_MSC_CAPS_WindU_IsbL-1000_RLatLon0.03_PT012H.grib2 2026-04-28 18:07 1.8M
20260428T12Z_MSC_CAPS_WindU_IsbL-1015_RLatLon0.03_PT012H.grib2 2026-04-28 18:07 1.8M
20260428T12Z_MSC_CAPS_WindV_AGL-10m_RLatLon0.03_PT012H.grib2 2026-04-28 18:07 1.9M
20260428T12Z_MSC_CAPS_WindV_AGL-120m_RLatLon0.03_PT012H.grib2 2026-04-28 18:07 1.1M
20260428T12Z_MSC_CAPS_WindV_AGL-40m_RLatLon0.03_PT012H.grib2 2026-04-28 18:07 1.2M
20260428T12Z_MSC_CAPS_WindV_AGL-80m_RLatLon0.03_PT012H.grib2 2026-04-28 18:07 1.2M
20260428T12Z_MSC_CAPS_WindV_IsbL-0050_RLatLon0.03_PT012H.grib2 2026-04-28 18:07 945K
20260428T12Z_MSC_CAPS_WindV_IsbL-0100_RLatLon0.03_PT012H.grib2 2026-04-28 18:07 801K
20260428T12Z_MSC_CAPS_WindV_IsbL-0150_RLatLon0.03_PT012H.grib2 2026-04-28 18:07 916K
20260428T12Z_MSC_CAPS_WindV_IsbL-0175_RLatLon0.03_PT012H.grib2 2026-04-28 18:07 722K
20260428T12Z_MSC_CAPS_WindV_IsbL-0200_RLatLon0.03_PT012H.grib2 2026-04-28 18:07 864K
20260428T12Z_MSC_CAPS_WindV_IsbL-0225_RLatLon0.03_PT012H.grib2 2026-04-28 18:07 883K
20260428T12Z_MSC_CAPS_WindV_IsbL-0250_RLatLon0.03_PT012H.grib2 2026-04-28 18:07 907K
20260428T12Z_MSC_CAPS_WindV_IsbL-0275_RLatLon0.03_PT012H.grib2 2026-04-28 18:07 915K
20260428T12Z_MSC_CAPS_WindV_IsbL-0300_RLatLon0.03_PT012H.grib2 2026-04-28 18:07 925K
20260428T12Z_MSC_CAPS_WindV_IsbL-0350_RLatLon0.03_PT012H.grib2 2026-04-28 18:07 939K
20260428T12Z_MSC_CAPS_WindV_IsbL-0400_RLatLon0.03_PT012H.grib2 2026-04-28 18:07 942K
20260428T12Z_MSC_CAPS_WindV_IsbL-0450_RLatLon0.03_PT012H.grib2 2026-04-28 18:07 958K
20260428T12Z_MSC_CAPS_WindV_IsbL-0500_RLatLon0.03_PT012H.grib2 2026-04-28 18:07 862K
20260428T12Z_MSC_CAPS_WindV_IsbL-0550_RLatLon0.03_PT012H.grib2 2026-04-28 18:07 896K
20260428T12Z_MSC_CAPS_WindV_IsbL-0600_RLatLon0.03_PT012H.grib2 2026-04-28 18:07 923K
20260428T12Z_MSC_CAPS_WindV_IsbL-0650_RLatLon0.03_PT012H.grib2 2026-04-28 18:07 1.2M
20260428T12Z_MSC_CAPS_WindV_IsbL-0700_RLatLon0.03_PT012H.grib2 2026-04-28 18:07 1.2M
20260428T12Z_MSC_CAPS_WindV_IsbL-0750_RLatLon0.03_PT012H.grib2 2026-04-28 18:07 1.3M
20260428T12Z_MSC_CAPS_WindV_IsbL-0800_RLatLon0.03_PT012H.grib2 2026-04-28 18:07 1.4M
20260428T12Z_MSC_CAPS_WindV_IsbL-0850_RLatLon0.03_PT012H.grib2 2026-04-28 18:07 1.5M
20260428T12Z_MSC_CAPS_WindV_IsbL-0875_RLatLon0.03_PT012H.grib2 2026-04-28 18:07 1.5M
20260428T12Z_MSC_CAPS_WindV_IsbL-0900_RLatLon0.03_PT012H.grib2 2026-04-28 18:07 1.6M
20260428T12Z_MSC_CAPS_WindV_IsbL-0925_RLatLon0.03_PT012H.grib2 2026-04-28 18:07 1.6M
20260428T12Z_MSC_CAPS_WindV_IsbL-0950_RLatLon0.03_PT012H.grib2 2026-04-28 18:07 1.7M
20260428T12Z_MSC_CAPS_WindV_IsbL-0970_RLatLon0.03_PT012H.grib2 2026-04-28 18:07 1.7M
20260428T12Z_MSC_CAPS_WindV_IsbL-0985_RLatLon0.03_PT012H.grib2 2026-04-28 18:07 1.7M
20260428T12Z_MSC_CAPS_WindV_IsbL-1000_RLatLon0.03_PT012H.grib2 2026-04-28 18:07 1.9M
20260428T12Z_MSC_CAPS_WindV_IsbL-1015_RLatLon0.03_PT012H.grib2 2026-04-28 18:07 1.9M